Location: Campillo
(40.8621°N, 4.2488°W)
Time: 02:33:26
(UTC+00:00)

USA 245 - Pass Details

Date: 04 October 2021
Orbit: 268 x 1012 km, 97.9° (Epoch: 21 October)

Event Time Altitude Azimuth Distance (km) Brightness Sun altitude
Exits shadow 21:26:38 16° 352° (N) 2,052 6.5 -39.3°
Drops below altitude 10° 21:27:49 10° 351° (N) 2,515 7.1 -39.5°
Sets 21:30:28 0° 350° (N) 3,552 8.0 -39.9°
